This is the latest recevied weather packets stored in our database for station/object ZL1CTS-13. If no packets are shown the sender has not sent any weather packets the latest 10 day(s).
| Time | Temp. | Humidity | Pressure | Rain* | Wind** | Luminosity | Snow |
|---|---|---|---|---|---|---|---|
| 1787939705 | 13.89° C | 99% | 1004.1 hPa | 0 mm | - | - | - |
| 1787939404 | 13.89° C | 99% | 1004 hPa | 0 mm | - | - | - |
| 1787939104 | 13.89° C | 99% | 1004.1 hPa | 0 mm | - | - | - |
| 1787938804 | 13.89° C | 99% | 1004.2 hPa | 0 mm | - | - | - |
| 1787938505 | 13.89° C | 99% | 1004.2 hPa | 0 mm | - | - | - |
| 1787938204 | 13.89° C | 99% | 1004.3 hPa | 0 mm | - | - | - |
| 1787937905 | 13.89° C | 99% | 1004.2 hPa | 0 mm | - | - | - |
| 1787937604 | 13.89° C | 99% | 1004.2 hPa | 0 mm | - | - | - |
| 1787937305 | 13.89° C | 99% | 1004.3 hPa | 0 mm | - | - | - |
| 1787937004 | 13.89° C | 99% | 1004.3 hPa | 0 mm | - | - | - |
| 1787936706 | 13.89° C | 99% | 1004.3 hPa | 0 mm | - | - | - |
| 1787936404 | 13.89° C | 99% | 1004.2 hPa | 0.25 mm | - | - | - |
| 1787936106 | 13.89° C | 99% | 1004.2 hPa | 0.76 mm | - | - | - |
| 1787935804 | 13.89° C | 99% | 1004.2 hPa | 1.27 mm | - | - | - |
| 1787935507 | 13.89° C | 99% | 1004.3 hPa | 2.03 mm | - | - | - |
| 1787935204 | 13.89° C | 99% | 1004.2 hPa | 2.29 mm | - | - | - |
| 1787934906 | 13.89° C | 99% | 1004.2 hPa | 3.05 mm | - | - | - |
| 1787934604 | 13.89° C | 99% | 1004.3 hPa | 3.05 mm | - | - | - |
| 1787934307 | 13.89° C | 99% | 1004.2 hPa | 3.05 mm | - | - | - |
| 1787934004 | 13.89° C | 99% | 1004 hPa | 3.3 mm | - | - | - |
| 1787933704 | 13.89° C | 99% | 1004 hPa | 3.81 mm | - | - | - |
| 1787933404 | 13.89° C | 99% | 1004.1 hPa | 4.32 mm | - | - | - |
| 1787933104 | 13.89° C | 99% | 1004.2 hPa | 5.33 mm | - | - | - |
| 1787932804 | 13.89° C | 99% | 1004.4 hPa | 5.84 mm | - | - | - |
| 1787932504 | 13.89° C | 99% | 1004.5 hPa | 6.1 mm | - | - | - |
* Rain latest hour (hover to see other rain measurements)
** Current wind speed in m/s (hover to see current wind gust speed)